Content
SEND FEEDBACK

Daily
Averages
Monthly
Summary
France

LE HAVRE, FRANCE


Home > Europe > France
Elevation: 103 meters     Latitude: 49 31N     Longitude: 000 04E

WEATHER
 
SELECT A DAY
Number of Records: 176,732;   Date Range: 3/4/97 - 8/10/14
 
SHARE

PRINT THIS DATA

[ ← Previous Day ]
WEATHER ALMANAC - 14 MAY, 2013
[ Next Day → ]
[ °F ]   °C
Weather ElementAverageHighLow
Temperature9.9 °C12 °C (3:00 pm)8 °C (8:30 am)
Dewpoint6.7 °C8 °C (6:00 pm)6 °C (12:30 am)
Humidity80.5 %87 % (4:00 am)67 % (3:30 pm)
Barometer1006.8 hPa1014.2 hPa (12:30 am)996.3 hPa (10:00 pm)
Wind Speed21.9 km/h35.2 km/h (11:30 pm)
Wind Gust50.1 km/h (10:30 pm)
Weather ElementAverage
Visibility10 km
Wind DirectionSSW (201.9 °)

Weather ElementTotal
Precipitation---
Heating Degree Days8.3 (Base 18.3)
Averaged from 47 records on 14 May, 2013
WEATHER CONDITIONS BREAKOUT
WIND DIRECTION BREAKOUT
WEATHER BY HOUR - 14 MAY, 2013
[ °F ]   °C
Local TimeTemperatureDewpointHumidityBarometerVisibilityWind DirectionWind SpeedGust SpeedPrecipitationEventsConditions
12:30 AM9 °C6 °C82 %1014.2 hPa10 kmWSW (250°)29.6 km/hMostly Cloudy
1:00 AM9 °C6 °C82 %1014.2 hPa10 kmWSW (250°)25.9 km/hOvercast
1:30 AM9 °C6 °C82 %1014.2 hPa10 kmWSW (250°)25.9 km/hMostly Cloudy
2:00 AM9 °C6 °C82 %1014.2 hPa10 kmWSW (240°)27.8 km/hMostly Cloudy
2:30 AM9 °C6 °C82 %1013.2 hPa10 kmWSW (240°)27.8 km/h
3:00 AM9 °C6 °C82 %1013.2 hPa10 kmWSW (240°)29.6 km/h
3:30 AM9 °C6 °C82 %1013.2 hPa10 kmWSW (240°)25.9 km/h
4:00 AM9 °C7 °C87 %1013.2 hPa10 kmWSW (240°)27.8 km/h
4:30 AM9 °C7 °C87 %1012.2 hPa10 kmWSW (240°)22.2 km/hOvercast
5:00 AM9 °C6 °C82 %1012.2 hPa10 kmWSW (240°)24.1 km/hOvercast
5:30 AM9 °C6 °C82 %1012.2 hPa10 kmSW (230°)20.4 km/hOvercast
6:00 AM9 °C6 °C82 %1011.2 hPa10 kmSW (230°)22.2 km/hOvercast
6:30 AM9 °C6 °C82 %1011.2 hPa10 kmSW (230°)22.2 km/hOvercast
7:00 AM9 °C6 °C82 %1011.2 hPa10 kmSW (220°)18.5 km/hMostly Cloudy
7:30 AM9 °C6 °C82 %1011.2 hPa10 kmSW (220°)18.5 km/hOvercast
8:00 AM9 °C6 °C82 %1011.2 hPa10 kmSW (220°)22.2 km/hRainLight Rain
8:30 AM8 °C6 °C87 %1011.2 hPa8 kmSW (230°)20.4 km/hRainLight Rain
9:00 AM9 °C7 °C87 %1011.2 hPa10 kmSSW (200°)13 km/hRainLight Rain
9:30 AM9 °C7 °C87 %1010.2 hPa10 kmSSW (200°)16.7 km/hRainLight Rain
10:00 AM9 °C7 °C87 %1010.2 hPa10 kmSSW (210°)16.7 km/hLight Drizzle
10:30 AM9 °C7 °C87 %1010.2 hPa10 kmSSW (210°)16.7 km/hRainLight Rain
11:00 AM9 °C7 °C87 %1009.1 hPa10 kmSSW (210°)14.8 km/hMostly Cloudy
11:30 AM9 °C7 °C87 %1009.1 hPa10 kmSSW (200°)14.8 km/hRainLight Rain
12:00 PM9 °C7 °C87 %1009.1 hPa10 kmSouth (190°)14.8 km/hRainLight Rain
12:30 PM9 °C6 °C82 %1008.1 hPa10 kmSouth (190°)14.8 km/hRainLight Rain
1:00 PM10 °C7 °C82 %1007.1 hPa10 kmSouth (190°)16.7 km/hRainLight Rain
1:30 PM10 °C6 °C76 %1007.1 hPa10 kmSouth (190°)18.5 km/hMostly Cloudy
2:00 PM11 °C6 °C71 %1006.1 hPa10 kmSouth (180°)18.5 km/hOvercast
2:30 PM11 °C6 °C71 %1005.1 hPa10 kmSouth (180°)20.4 km/hMostly Cloudy
3:00 PM12 °C7 °C72 %1005.1 hPa10 kmSouth (170°)20.4 km/hMostly Cloudy
3:30 PM12 °C6 °C67 %1004.1 hPa10 kmSouth (170°)24.1 km/hMostly Cloudy
4:00 PM12 °C7 °C72 %1004.1 hPa10 kmSouth (180°)22.2 km/hOvercast
4:30 PM12 °C6 °C67 %1003 hPa10 kmSouth (180°)20.4 km/hOvercast
5:00 PM11 °C6 °C71 %1003 hPa10 kmSouth (180°)20.4 km/hOvercast
5:30 PM11 °C7 °C76 %1002 hPa10 kmSouth (180°)24.1 km/hMostly Cloudy
6:00 PM11 °C8 °C82 %1001 hPa10 kmSouth (170°)16.7 km/hLight Drizzle
6:30 PM11 °C8 °C82 %1001 hPa10 kmSSE (150°)16.7 km/hOvercast
7:00 PM11 °C8 °C82 %1000 hPa10 kmSE (140°)16.7 km/hOvercast
7:30 PM11 °C8 °C82 %999 hPa10 kmSSE (150°)16.7 km/hOvercast
8:00 PM12 °C7 °C72 %999 hPa10 kmSouth (180°)25.9 km/hMostly Cloudy
8:30 PM12 °C7 °C72 %998 hPa10 kmSouth (180°)24.1 km/hOvercast
9:00 PM11 °C8 °C82 %998 hPa10 kmSouth (170°)25.9 km/hRainLight Rain
9:30 PM11 °C8 °C82 %997 hPa10 kmSouth (170°)25.9 km/h
10:00 PM11 °C7 °C76 %996.3 hPa10 kmSouth (170°)25.9 km/h48.1 km/hOvercast
10:30 PM11 °C8 °C82 %996.3 hPa10 kmSouth (180°)27.8 km/h50.1 km/hMostly Cloudy
11:00 PM11 °C8 °C82 %996.3 hPa10 kmSouth (190°)27.8 km/h48.1 km/hRainLight Rain
11:30 PM9 °C6 °C82 %997 hPa10 kmSW (220°)35.2 km/hMostly Cloudy
Hourly data recorded from LFOH, located 0 kilometers away from Le Havre, France







STORIES FROM OUR PARTNERS